Year,Month,Day,Hour,Minute,Value (Times are PST for temperature in C)
2014,06,21,00,00,11.10
2014,06,21,00,01,11.10
2014,06,21,00,02,11.10
2014,06,21,00,03,11.10
2014,06,21,00,04,11.00
2014,06,21,00,05,11.00
2014,06,21,00,06,11.00
2014,06,21,00,07,10.90
2014,06,21,00,08,10.90
2014,06,21,00,09,10.90
2014,06,21,00,10,10.90
2014,06,21,00,11,10.80
2014,06,21,00,12,10.80
2014,06,21,00,13,10.80
2014,06,21,00,14,10.80
2014,06,21,00,15,10.80
2014,06,21,00,16,10.80
2014,06,21,00,17,10.80
2014,06,21,00,18,10.80
2014,06,21,00,19,10.80
2014,06,21,00,20,10.70
2014,06,21,00,21,10.70
2014,06,21,00,22,10.70
2014,06,21,00,23,10.70
2014,06,21,00,24,10.60
2014,06,21,00,25,10.60
2014,06,21,00,26,10.60
2014,06,21,00,27,10.50
2014,06,21,00,28,10.50
2014,06,21,00,29,10.50
2014,06,21,00,30,10.40
2014,06,21,00,31,10.40
2014,06,21,00,32,10.40
2014,06,21,00,33,10.30
2014,06,21,00,34,10.30
2014,06,21,00,35,10.30
2014,06,21,00,36,10.30
2014,06,21,00,37,10.30
2014,06,21,00,38,10.20
2014,06,21,00,39,10.20
2014,06,21,00,40,10.20
2014,06,21,00,41,10.10
2014,06,21,00,42,10.10
2014,06,21,00,43,10.10
2014,06,21,00,44,10.00
2014,06,21,00,45,10.00
2014,06,21,00,46,9.90
2014,06,21,00,47,9.90
2014,06,21,00,48,9.90
2014,06,21,00,49,9.90
2014,06,21,00,50,9.90
2014,06,21,00,51,9.80
2014,06,21,00,52,9.80
2014,06,21,00,53,9.80
2014,06,21,00,54,9.80
2014,06,21,00,55,9.80
2014,06,21,00,56,9.80
2014,06,21,00,57,9.70
2014,06,21,00,58,9.70
2014,06,21,00,59,9.70
2014,06,21,01,00,9.70
2014,06,21,01,01,9.70
2014,06,21,01,02,9.60
2014,06,21,01,03,9.60
2014,06,21,01,04,9.60
2014,06,21,01,05,9.60
2014,06,21,01,06,9.60
2014,06,21,01,07,9.60
2014,06,21,01,08,9.50
2014,06,21,01,09,9.50
2014,06,21,01,10,9.50
2014,06,21,01,11,9.40
2014,06,21,01,12,9.40
2014,06,21,01,13,9.40
2014,06,21,01,14,9.40
2014,06,21,01,15,9.40
2014,06,21,01,16,9.40
2014,06,21,01,17,9.40
2014,06,21,01,18,9.40
2014,06,21,01,19,9.30
2014,06,21,01,20,9.30
2014,06,21,01,21,9.30
2014,06,21,01,22,9.30
2014,06,21,01,23,9.30
2014,06,21,01,24,9.30
2014,06,21,01,25,9.30
2014,06,21,01,26,9.30
2014,06,21,01,27,9.30
2014,06,21,01,28,9.30
2014,06,21,01,29,9.30
2014,06,21,01,30,9.30
2014,06,21,01,31,9.30
2014,06,21,01,32,9.40
2014,06,21,01,33,9.40
2014,06,21,01,34,9.40
2014,06,21,01,35,9.40
2014,06,21,01,36,9.30
2014,06,21,01,37,9.30
2014,06,21,01,38,9.30
2014,06,21,01,39,9.30
2014,06,21,01,40,9.30
2014,06,21,01,41,9.30
2014,06,21,01,42,9.20
2014,06,21,01,43,9.20
2014,06,21,01,44,9.20
2014,06,21,01,45,9.20
2014,06,21,01,46,9.20
2014,06,21,01,47,9.10
2014,06,21,01,48,9.10
2014,06,21,01,49,9.10
2014,06,21,01,50,9.10
2014,06,21,01,51,9.10
2014,06,21,01,52,9.10
2014,06,21,01,53,9.10
2014,06,21,01,54,9.10
2014,06,21,01,55,9.00
2014,06,21,01,56,9.00
2014,06,21,01,57,9.00
2014,06,21,01,58,9.00
2014,06,21,01,59,9.00
2014,06,21,02,00,9.00
2014,06,21,02,01,9.00
2014,06,21,02,02,8.90
2014,06,21,02,03,8.90
2014,06,21,02,04,8.90
2014,06,21,02,05,8.90
2014,06,21,02,06,9.00
2014,06,21,02,07,9.00
2014,06,21,02,08,9.10
2014,06,21,02,09,9.10
2014,06,21,02,10,9.10
2014,06,21,02,11,9.10
2014,06,21,02,12,9.10
2014,06,21,02,13,9.10
2014,06,21,02,14,9.20
2014,06,21,02,15,9.20
2014,06,21,02,16,9.20
2014,06,21,02,17,9.20
2014,06,21,02,18,9.20
2014,06,21,02,19,9.20
2014,06,21,02,20,9.10
2014,06,21,02,21,9.10
2014,06,21,02,22,9.10
2014,06,21,02,23,9.10
2014,06,21,02,24,9.10
2014,06,21,02,25,9.10
2014,06,21,02,26,9.00
2014,06,21,02,27,9.00
2014,06,21,02,28,9.00
2014,06,21,02,29,9.00
2014,06,21,02,30,8.90
2014,06,21,02,31,8.90
2014,06,21,02,32,8.90
2014,06,21,02,33,8.90
2014,06,21,02,34,8.90
2014,06,21,02,35,8.80
2014,06,21,02,36,8.80
2014,06,21,02,37,8.80
2014,06,21,02,38,8.80
2014,06,21,02,39,8.80
2014,06,21,02,40,8.80
2014,06,21,02,41,8.80
2014,06,21,02,42,8.90
2014,06,21,02,43,8.90
2014,06,21,02,44,8.90
2014,06,21,02,45,8.90
2014,06,21,02,46,8.90
2014,06,21,02,47,8.90
2014,06,21,02,48,8.90
2014,06,21,02,49,8.90
2014,06,21,02,50,8.90
2014,06,21,02,51,8.90
2014,06,21,02,52,8.90
2014,06,21,02,53,8.90
2014,06,21,02,54,8.90
2014,06,21,02,55,8.90
2014,06,21,02,56,8.90
2014,06,21,02,57,8.90
2014,06,21,02,58,8.90
2014,06,21,02,59,8.90
2014,06,21,03,00,8.90
2014,06,21,03,01,8.90
2014,06,21,03,02,8.90
2014,06,21,03,03,8.90
2014,06,21,03,04,8.90
2014,06,21,03,05,8.90
2014,06,21,03,06,8.80
2014,06,21,03,07,8.80
2014,06,21,03,08,8.80
2014,06,21,03,09,8.80
2014,06,21,03,10,8.80
2014,06,21,03,11,8.80
2014,06,21,03,12,8.80
2014,06,21,03,13,8.80
2014,06,21,03,14,8.80
2014,06,21,03,15,8.80
2014,06,21,03,16,8.80
2014,06,21,03,17,8.70
2014,06,21,03,18,8.70
2014,06,21,03,19,8.70
2014,06,21,03,20,8.70
2014,06,21,03,21,8.70
2014,06,21,03,22,8.70
2014,06,21,03,23,8.70
2014,06,21,03,24,8.70
2014,06,21,03,25,8.70
2014,06,21,03,26,8.70
2014,06,21,03,27,8.70
2014,06,21,03,28,8.70
2014,06,21,03,29,8.70
2014,06,21,03,30,8.70
2014,06,21,03,31,8.70
2014,06,21,03,32,8.60
2014,06,21,03,33,8.60
2014,06,21,03,34,8.60
2014,06,21,03,35,8.60
2014,06,21,03,36,8.60
2014,06,21,03,37,8.60
2014,06,21,03,38,8.60
2014,06,21,03,39,8.60
2014,06,21,03,40,8.60
2014,06,21,03,41,8.60
2014,06,21,03,42,8.60
2014,06,21,03,43,8.60
2014,06,21,03,44,8.60
2014,06,21,03,45,8.60
2014,06,21,03,46,8.60
2014,06,21,03,47,8.60
2014,06,21,03,48,8.60
2014,06,21,03,49,8.60
2014,06,21,03,50,8.60
2014,06,21,03,51,8.60
2014,06,21,03,52,8.60
2014,06,21,03,53,8.60
2014,06,21,03,54,8.60
2014,06,21,03,55,8.60
2014,06,21,03,56,8.60
2014,06,21,03,57,8.60
2014,06,21,03,58,8.50
2014,06,21,03,59,8.50
2014,06,21,04,00,8.50
2014,06,21,04,01,8.50
2014,06,21,04,02,8.50
2014,06,21,04,03,8.50
2014,06,21,04,04,8.60
2014,06,21,04,05,8.60
2014,06,21,04,06,8.60
2014,06,21,04,07,8.60
2014,06,21,04,08,8.50
2014,06,21,04,09,8.50
2014,06,21,04,10,8.50
2014,06,21,04,11,8.50
2014,06,21,04,12,8.50
2014,06,21,04,13,8.50
2014,06,21,04,14,8.50
2014,06,21,04,15,8.50
2014,06,21,04,16,8.40
2014,06,21,04,17,8.40
2014,06,21,04,18,8.40
2014,06,21,04,19,8.40
2014,06,21,04,20,8.40
2014,06,21,04,21,8.40
2014,06,21,04,22,8.40
2014,06,21,04,23,8.40
2014,06,21,04,24,8.40
2014,06,21,04,25,8.40
2014,06,21,04,26,8.40
2014,06,21,04,27,8.30
2014,06,21,04,28,8.30
2014,06,21,04,29,8.30
2014,06,21,04,30,8.30
2014,06,21,04,31,8.20
2014,06,21,04,32,8.20
2014,06,21,04,33,8.20
2014,06,21,04,34,8.20
2014,06,21,04,35,8.20
2014,06,21,04,36,8.20
2014,06,21,04,37,8.20
2014,06,21,04,38,8.20
2014,06,21,04,39,8.20
2014,06,21,04,40,8.10
2014,06,21,04,41,8.10
2014,06,21,04,42,8.10
2014,06,21,04,43,8.10
2014,06,21,04,44,8.10
2014,06,21,04,45,8.10
2014,06,21,04,46,8.10
2014,06,21,04,47,8.20
2014,06,21,04,48,8.20
2014,06,21,04,49,8.20
2014,06,21,04,50,8.20
2014,06,21,04,51,8.30
2014,06,21,04,52,8.30
2014,06,21,04,53,8.30
2014,06,21,04,54,8.30
2014,06,21,04,55,8.30
2014,06,21,04,56,8.30
2014,06,21,04,57,8.30
2014,06,21,04,58,8.30
2014,06,21,04,59,8.30
2014,06,21,05,00,8.30
2014,06,21,05,01,8.30
2014,06,21,05,02,8.30
2014,06,21,05,03,8.30
2014,06,21,05,04,8.30
2014,06,21,05,05,8.30
2014,06,21,05,06,8.30
2014,06,21,05,07,8.30
2014,06,21,05,08,8.30
2014,06,21,05,09,8.30
2014,06,21,05,10,8.30
2014,06,21,05,11,8.30
2014,06,21,05,12,8.20
2014,06,21,05,13,8.20
2014,06,21,05,14,8.20
2014,06,21,05,15,8.20
2014,06,21,05,16,8.10
2014,06,21,05,17,8.10
2014,06,21,05,18,8.10
2014,06,21,05,19,8.10
2014,06,21,05,20,8.10
2014,06,21,05,21,8.10
2014,06,21,05,22,8.00
2014,06,21,05,23,8.00
2014,06,21,05,24,8.00
2014,06,21,05,25,8.00
2014,06,21,05,26,8.00
2014,06,21,05,27,8.00
2014,06,21,05,28,8.00
2014,06,21,05,29,8.00
2014,06,21,05,30,8.00
2014,06,21,05,31,8.00
2014,06,21,05,32,8.00
2014,06,21,05,33,8.00
2014,06,21,05,34,8.00
2014,06,21,05,35,8.00
2014,06,21,05,36,8.00
2014,06,21,05,37,8.00
2014,06,21,05,38,8.00
2014,06,21,05,39,8.10
2014,06,21,05,40,8.10
2014,06,21,05,41,8.10
2014,06,21,05,42,8.10
2014,06,21,05,43,8.10
2014,06,21,05,44,8.10
2014,06,21,05,45,8.10
2014,06,21,05,46,8.10
2014,06,21,05,47,8.10
2014,06,21,05,48,8.10
2014,06,21,05,49,8.10
2014,06,21,05,50,8.10
2014,06,21,05,51,8.10
2014,06,21,05,52,8.10
2014,06,21,05,53,8.10
2014,06,21,05,54,8.10
2014,06,21,05,55,8.10
2014,06,21,05,56,8.10
2014,06,21,05,57,8.10
2014,06,21,05,58,8.10
2014,06,21,05,59,8.00
2014,06,21,06,00,8.10
2014,06,21,06,01,8.00
2014,06,21,06,02,8.00
2014,06,21,06,03,8.00
2014,06,21,06,04,8.00
2014,06,21,06,05,8.00
2014,06,21,06,06,8.10
2014,06,21,06,07,8.10
2014,06,21,06,08,8.10
2014,06,21,06,09,8.10
2014,06,21,06,10,8.10
2014,06,21,06,11,8.20
2014,06,21,06,12,8.20
2014,06,21,06,13,8.20
2014,06,21,06,14,8.20
2014,06,21,06,15,8.20
2014,06,21,06,16,8.20
2014,06,21,06,17,8.30
2014,06,21,06,18,8.30
2014,06,21,06,19,8.30
2014,06,21,06,20,8.30
2014,06,21,06,21,8.30
2014,06,21,06,22,8.40
2014,06,21,06,23,8.40
2014,06,21,06,24,8.50
2014,06,21,06,25,8.50
2014,06,21,06,26,8.50
2014,06,21,06,27,8.60
2014,06,21,06,28,8.60
2014,06,21,06,29,8.70
2014,06,21,06,30,8.70
2014,06,21,06,31,8.70
2014,06,21,06,32,8.70
2014,06,21,06,33,8.70
2014,06,21,06,34,8.80
2014,06,21,06,35,8.80
2014,06,21,06,36,8.80
2014,06,21,06,37,8.90
2014,06,21,06,38,8.90
2014,06,21,06,39,9.00
2014,06,21,06,40,9.00
2014,06,21,06,41,9.10
2014,06,21,06,42,9.10
2014,06,21,06,43,9.10
2014,06,21,06,44,9.20
2014,06,21,06,45,9.20
2014,06,21,06,46,9.30
2014,06,21,06,47,9.30
2014,06,21,06,48,9.40
2014,06,21,06,49,9.40
2014,06,21,06,50,9.40
2014,06,21,06,51,9.50
2014,06,21,06,52,9.50
2014,06,21,06,53,9.60
2014,06,21,06,54,9.60
2014,06,21,06,55,9.70
2014,06,21,06,56,9.70
2014,06,21,06,57,9.80
2014,06,21,06,58,9.80
2014,06,21,06,59,9.90
2014,06,21,07,00,9.90
2014,06,21,07,01,10.00
2014,06,21,07,02,10.00
2014,06,21,07,03,10.10
2014,06,21,07,04,10.10
2014,06,21,07,05,10.20
2014,06,21,07,06,10.20
2014,06,21,07,07,10.30
2014,06,21,07,08,10.40
2014,06,21,07,09,10.40
2014,06,21,07,10,10.50
2014,06,21,07,11,10.60
2014,06,21,07,12,10.60
2014,06,21,07,13,10.70
2014,06,21,07,14,10.80
2014,06,21,07,15,10.80
2014,06,21,07,16,10.90
2014,06,21,07,17,11.00
2014,06,21,07,18,11.00
2014,06,21,07,19,11.10
2014,06,21,07,20,11.10
2014,06,21,07,21,11.20
2014,06,21,07,22,11.20
2014,06,21,07,23,11.30
2014,06,21,07,24,11.30
2014,06,21,07,25,11.40
2014,06,21,07,26,11.50
2014,06,21,07,27,11.50
2014,06,21,07,28,11.60
2014,06,21,07,29,11.70
2014,06,21,07,30,11.80
2014,06,21,07,31,11.90
2014,06,21,07,32,12.00
2014,06,21,07,33,12.10
2014,06,21,07,34,12.20
2014,06,21,07,35,12.30
2014,06,21,07,36,12.50
2014,06,21,07,37,12.60
2014,06,21,07,38,12.80
2014,06,21,07,39,12.80
2014,06,21,07,40,12.90
2014,06,21,07,41,13.00
2014,06,21,07,42,13.00
2014,06,21,07,43,13.10
2014,06,21,07,44,13.20
2014,06,21,07,45,13.20
2014,06,21,07,46,13.30
2014,06,21,07,47,13.30
2014,06,21,07,48,13.40
2014,06,21,07,49,13.40
2014,06,21,07,50,13.40
2014,06,21,07,51,13.40
2014,06,21,07,52,13.50
2014,06,21,07,53,13.50
2014,06,21,07,54,13.60
2014,06,21,07,55,13.70
2014,06,21,07,56,13.70
2014,06,21,07,57,13.70
2014,06,21,07,58,13.70
2014,06,21,07,59,13.70
2014,06,21,08,00,13.70
2014,06,21,08,01,13.80
2014,06,21,08,02,13.90
2014,06,21,08,03,14.00
2014,06,21,08,04,14.10
2014,06,21,08,05,14.10
2014,06,21,08,06,14.10
2014,06,21,08,07,14.10
2014,06,21,08,08,14.10
2014,06,21,08,09,14.10
2014,06,21,08,10,14.10
2014,06,21,08,11,14.10
2014,06,21,08,12,14.10
2014,06,21,08,13,14.20
2014,06,21,08,14,14.20
2014,06,21,08,15,14.20
2014,06,21,08,16,14.20
2014,06,21,08,17,14.20
2014,06,21,08,18,14.20
2014,06,21,08,19,14.20
2014,06,21,08,20,14.30
2014,06,21,08,21,14.30
2014,06,21,08,22,14.40
2014,06,21,08,23,14.50
2014,06,21,08,24,14.50
2014,06,21,08,25,14.60
2014,06,21,08,26,14.60
2014,06,21,08,27,14.60
2014,06,21,08,28,14.60
2014,06,21,08,29,14.60
2014,06,21,08,30,14.70
2014,06,21,08,31,14.70
2014,06,21,08,32,14.70
2014,06,21,08,33,14.80
2014,06,21,08,34,14.80
2014,06,21,08,35,14.80
2014,06,21,08,36,14.90
2014,06,21,08,37,14.90
2014,06,21,08,38,15.00
2014,06,21,08,39,15.10
2014,06,21,08,40,15.10
2014,06,21,08,41,15.10
2014,06,21,08,42,15.10
2014,06,21,08,43,15.20
2014,06,21,08,44,15.20
2014,06,21,08,45,15.20
2014,06,21,08,46,15.20
2014,06,21,08,47,15.20
2014,06,21,08,48,15.10
2014,06,21,08,49,15.10
2014,06,21,08,50,15.10
2014,06,21,08,51,15.00
2014,06,21,08,52,14.90
2014,06,21,08,53,14.80
2014,06,21,08,54,14.70
2014,06,21,08,55,14.60
2014,06,21,08,56,14.60
2014,06,21,08,57,14.50
2014,06,21,08,58,14.60
2014,06,21,08,59,14.70
2014,06,21,09,00,14.80
2014,06,21,09,01,14.90
2014,06,21,09,02,15.00
2014,06,21,09,03,15.10
2014,06,21,09,04,15.20
2014,06,21,09,05,15.30
2014,06,21,09,06,15.30
2014,06,21,09,07,15.30
2014,06,21,09,08,15.30
2014,06,21,09,09,15.30
2014,06,21,09,10,15.30
2014,06,21,09,11,15.40
2014,06,21,09,12,15.40
2014,06,21,09,13,15.40
2014,06,21,09,14,15.50
2014,06,21,09,15,15.50
2014,06,21,09,16,15.60
2014,06,21,09,17,15.70
2014,06,21,09,18,15.70
2014,06,21,09,19,15.60
2014,06,21,09,20,15.60
2014,06,21,09,21,15.60
2014,06,21,09,22,15.70
2014,06,21,09,23,15.70
2014,06,21,09,24,15.80
2014,06,21,09,25,15.80
2014,06,21,09,26,15.80
2014,06,21,09,27,15.90
2014,06,21,09,28,15.90
2014,06,21,09,29,15.90
2014,06,21,09,30,15.90
2014,06,21,09,31,15.90
2014,06,21,09,32,15.90
2014,06,21,09,33,15.90
2014,06,21,09,34,16.00
2014,06,21,09,35,15.90
2014,06,21,09,36,15.90
2014,06,21,09,37,16.00
2014,06,21,09,38,16.00
2014,06,21,09,39,16.10
2014,06,21,09,40,16.20
2014,06,21,09,41,16.20
2014,06,21,09,42,16.30
2014,06,21,09,43,16.30
2014,06,21,09,44,16.40
2014,06,21,09,45,16.40
2014,06,21,09,46,16.40
2014,06,21,09,47,16.40
2014,06,21,09,48,16.40
2014,06,21,09,49,16.40
2014,06,21,09,50,16.40
2014,06,21,09,51,16.40
2014,06,21,09,52,16.40
2014,06,21,09,53,16.50
2014,06,21,09,54,16.50
2014,06,21,09,55,16.60
2014,06,21,09,56,16.50
2014,06,21,09,57,16.50
2014,06,21,09,58,16.50
2014,06,21,09,59,16.60
2014,06,21,10,00,16.60
2014,06,21,10,01,16.60
2014,06,21,10,02,16.70
2014,06,21,10,03,16.60
2014,06,21,10,04,16.60
2014,06,21,10,05,16.60
2014,06,21,10,06,16.70
2014,06,21,10,07,16.70
2014,06,21,10,08,16.80
2014,06,21,10,09,16.70
2014,06,21,10,10,16.70
2014,06,21,10,11,16.70
2014,06,21,10,12,16.60
2014,06,21,10,13,16.60
2014,06,21,10,14,16.60
2014,06,21,10,15,16.70
2014,06,21,10,16,16.70
2014,06,21,10,17,16.80
2014,06,21,10,18,16.90
2014,06,21,10,19,16.90
2014,06,21,10,20,16.90
2014,06,21,10,21,16.90
2014,06,21,10,22,16.90
2014,06,21,10,23,17.00
2014,06,21,10,24,17.00
2014,06,21,10,25,17.10
2014,06,21,10,26,17.10
2014,06,21,10,27,17.20
2014,06,21,10,28,17.20
2014,06,21,10,29,17.20
2014,06,21,10,30,17.00
2014,06,21,10,31,16.90
2014,06,21,10,32,16.80
2014,06,21,10,33,16.80
2014,06,21,10,34,16.80
2014,06,21,10,35,16.70
2014,06,21,10,36,16.60
2014,06,21,10,37,16.60
2014,06,21,10,38,16.60
2014,06,21,10,39,16.60
2014,06,21,10,40,16.70
2014,06,21,10,41,16.80
2014,06,21,10,42,16.90
2014,06,21,10,43,17.00
2014,06,21,10,44,17.10
2014,06,21,10,45,17.20
2014,06,21,10,46,17.30
2014,06,21,10,47,17.40
2014,06,21,10,48,17.40
2014,06,21,10,49,17.40
2014,06,21,10,50,17.40
2014,06,21,10,51,17.50
2014,06,21,10,52,17.50
2014,06,21,10,53,17.50
2014,06,21,10,54,17.50
2014,06,21,10,55,17.40
2014,06,21,10,56,17.30
2014,06,21,10,57,17.30
2014,06,21,10,58,17.20
2014,06,21,10,59,17.30
2014,06,21,11,00,17.40
2014,06,21,11,01,17.40
2014,06,21,11,02,17.50
2014,06,21,11,03,17.60
2014,06,21,11,04,17.60
2014,06,21,11,05,17.60
2014,06,21,11,06,17.60
2014,06,21,11,07,17.70
2014,06,21,11,08,17.70
2014,06,21,11,09,17.70
2014,06,21,11,10,17.70
2014,06,21,11,11,17.80
2014,06,21,11,12,17.80
2014,06,21,11,13,17.90
2014,06,21,11,14,18.00
2014,06,21,11,15,18.00
2014,06,21,11,16,18.10
2014,06,21,11,17,18.10
2014,06,21,11,18,18.10
2014,06,21,11,19,18.00
2014,06,21,11,20,18.00
2014,06,21,11,21,17.90
2014,06,21,11,22,17.90
2014,06,21,11,23,17.90
2014,06,21,11,24,17.80
2014,06,21,11,25,17.80
2014,06,21,11,26,17.80
2014,06,21,11,27,17.80
2014,06,21,11,28,17.80
2014,06,21,11,29,17.90
2014,06,21,11,30,18.10
2014,06,21,11,31,18.20
2014,06,21,11,32,18.20
2014,06,21,11,33,18.20
2014,06,21,11,34,18.20
2014,06,21,11,35,18.20
2014,06,21,11,36,18.20
2014,06,21,11,37,18.30
2014,06,21,11,38,18.30
2014,06,21,11,39,18.30
2014,06,21,11,40,18.30
2014,06,21,11,41,18.20
2014,06,21,11,42,18.20
2014,06,21,11,43,18.10
2014,06,21,11,44,18.10
2014,06,21,11,45,18.00
2014,06,21,11,46,17.90
2014,06,21,11,47,17.80
2014,06,21,11,48,17.70
2014,06,21,11,49,17.60
2014,06,21,11,50,17.60
2014,06,21,11,51,17.60
2014,06,21,11,52,17.70
2014,06,21,11,53,17.70
2014,06,21,11,54,17.70
2014,06,21,11,55,17.80
2014,06,21,11,56,17.80
2014,06,21,11,57,17.80
2014,06,21,11,58,17.80
2014,06,21,11,59,17.80
2014,06,21,12,00,17.80
2014,06,21,12,01,17.80
2014,06,21,12,02,17.80
2014,06,21,12,03,17.80
2014,06,21,12,04,17.80
2014,06,21,12,05,17.90
2014,06,21,12,06,17.90
2014,06,21,12,07,17.90
2014,06,21,12,08,17.90
2014,06,21,12,09,17.90
2014,06,21,12,10,17.90
2014,06,21,12,11,17.90
2014,06,21,12,12,17.90
2014,06,21,12,13,17.80
2014,06,21,12,14,17.80
2014,06,21,12,15,17.80
2014,06,21,12,16,17.80
2014,06,21,12,17,17.80
2014,06,21,12,18,18.00
2014,06,21,12,19,18.00
2014,06,21,12,20,18.10
2014,06,21,12,21,18.20
2014,06,21,12,22,18.20
2014,06,21,12,23,18.20
2014,06,21,12,24,18.20
2014,06,21,12,25,18.20
2014,06,21,12,26,18.10
2014,06,21,12,27,18.10
2014,06,21,12,28,18.20
2014,06,21,12,29,18.20
2014,06,21,12,30,18.30
2014,06,21,12,31,18.30
2014,06,21,12,32,18.30
2014,06,21,12,33,18.40
2014,06,21,12,34,18.40
2014,06,21,12,35,18.50
2014,06,21,12,36,18.50
2014,06,21,12,37,18.60
2014,06,21,12,38,18.70
2014,06,21,12,39,18.80
2014,06,21,12,40,18.90
2014,06,21,12,41,19.00
2014,06,21,12,42,19.00
2014,06,21,12,43,19.10
2014,06,21,12,44,19.00
2014,06,21,12,45,19.00
2014,06,21,12,46,19.00
2014,06,21,12,47,19.10
2014,06,21,12,48,19.10
2014,06,21,12,49,19.20
2014,06,21,12,50,19.20
2014,06,21,12,51,19.30
2014,06,21,12,52,19.20
2014,06,21,12,53,19.20
2014,06,21,12,54,19.30
2014,06,21,12,55,19.30
2014,06,21,12,56,19.30
2014,06,21,12,57,19.30
2014,06,21,12,58,19.30
2014,06,21,12,59,19.30
2014,06,21,13,00,19.30
2014,06,21,13,01,19.40
2014,06,21,13,02,19.50
2014,06,21,13,03,19.60
2014,06,21,13,04,19.70
2014,06,21,13,05,19.70
2014,06,21,13,06,19.70
2014,06,21,13,07,19.80
2014,06,21,13,08,19.80
2014,06,21,13,09,19.90
2014,06,21,13,10,19.90
2014,06,21,13,11,19.90
2014,06,21,13,12,19.90
2014,06,21,13,13,20.00
2014,06,21,13,14,20.10
2014,06,21,13,15,20.10
2014,06,21,13,16,20.20
2014,06,21,13,17,20.10
2014,06,21,13,18,20.10
2014,06,21,13,19,20.00
2014,06,21,13,20,20.00
2014,06,21,13,21,19.90
2014,06,21,13,22,19.80
2014,06,21,13,23,19.80
2014,06,21,13,24,19.70
2014,06,21,13,25,19.70
2014,06,21,13,26,19.80
2014,06,21,13,27,19.80
2014,06,21,13,28,19.80
2014,06,21,13,29,19.80
2014,06,21,13,30,19.80
2014,06,21,13,31,19.80
2014,06,21,13,32,19.90
2014,06,21,13,33,19.90
2014,06,21,13,34,19.90
2014,06,21,13,35,19.90
2014,06,21,13,36,19.90
2014,06,21,13,37,19.90
2014,06,21,13,38,19.90
2014,06,21,13,39,19.90
2014,06,21,13,40,19.90
2014,06,21,13,41,19.90
2014,06,21,13,42,19.90
2014,06,21,13,43,19.90
2014,06,21,13,44,20.00
2014,06,21,13,45,20.10
2014,06,21,13,46,20.10
2014,06,21,13,47,20.20
2014,06,21,13,48,20.20
2014,06,21,13,49,20.20
2014,06,21,13,50,20.10
2014,06,21,13,51,20.00
2014,06,21,13,52,19.90
2014,06,21,13,53,19.80
2014,06,21,13,54,19.80
2014,06,21,13,55,19.80
2014,06,21,13,56,19.80
2014,06,21,13,57,19.70
2014,06,21,13,58,19.70
2014,06,21,13,59,19.70
2014,06,21,14,00,19.70
2014,06,21,14,01,19.70
2014,06,21,14,02,19.60
2014,06,21,14,03,19.60
2014,06,21,14,04,19.60
2014,06,21,14,05,19.60
2014,06,21,14,06,19.50
2014,06,21,14,07,19.50
2014,06,21,14,08,19.50
2014,06,21,14,09,19.40
2014,06,21,14,10,19.40
2014,06,21,14,11,19.30
2014,06,21,14,12,19.30
2014,06,21,14,13,19.20
2014,06,21,14,14,19.10
2014,06,21,14,15,19.00
2014,06,21,14,16,18.90
2014,06,21,14,17,18.80
2014,06,21,14,18,18.70
2014,06,21,14,19,18.70
2014,06,21,14,20,18.80
2014,06,21,14,21,18.80
2014,06,21,14,22,18.80
2014,06,21,14,23,18.90
2014,06,21,14,24,18.90
2014,06,21,14,25,19.00
2014,06,21,14,26,19.10
2014,06,21,14,27,19.10
2014,06,21,14,28,19.20
2014,06,21,14,29,19.20
2014,06,21,14,30,19.30
2014,06,21,14,31,19.20
2014,06,21,14,32,19.10
2014,06,21,14,33,19.10
2014,06,21,14,34,19.10
2014,06,21,14,35,19.10
2014,06,21,14,36,19.00
2014,06,21,14,37,19.00
2014,06,21,14,38,18.90
2014,06,21,14,39,18.90
2014,06,21,14,40,18.90
2014,06,21,14,41,18.90
2014,06,21,14,42,19.00
2014,06,21,14,43,19.00
2014,06,21,14,44,19.10
2014,06,21,14,45,19.20
2014,06,21,14,46,19.20
2014,06,21,14,47,19.10
2014,06,21,14,48,19.10
2014,06,21,14,49,19.10
2014,06,21,14,50,19.10
2014,06,21,14,51,19.10
2014,06,21,14,52,19.20
2014,06,21,14,53,19.20
2014,06,21,14,54,19.30
2014,06,21,14,55,19.30
2014,06,21,14,56,19.20
2014,06,21,14,57,19.10
2014,06,21,14,58,19.00
2014,06,21,14,59,18.80
2014,06,21,15,00,18.70
2014,06,21,15,01,18.60
2014,06,21,15,02,18.60
2014,06,21,15,03,18.50
2014,06,21,15,04,18.40
2014,06,21,15,05,18.40
2014,06,21,15,06,18.40
2014,06,21,15,07,18.50
2014,06,21,15,08,18.50
2014,06,21,15,09,18.60
2014,06,21,15,10,18.70
2014,06,21,15,11,18.70
2014,06,21,15,12,18.70
2014,06,21,15,13,18.70
2014,06,21,15,14,18.80
2014,06,21,15,15,18.80
2014,06,21,15,16,18.80
2014,06,21,15,17,18.80
2014,06,21,15,18,18.80
2014,06,21,15,19,18.80
2014,06,21,15,20,18.90
2014,06,21,15,21,18.90
2014,06,21,15,22,18.90
2014,06,21,15,23,18.90
2014,06,21,15,24,18.90
2014,06,21,15,25,18.90
2014,06,21,15,26,18.80
2014,06,21,15,27,18.90
2014,06,21,15,28,18.90
2014,06,21,15,29,18.90
2014,06,21,15,30,18.90
2014,06,21,15,31,18.90
2014,06,21,15,32,18.80
2014,06,21,15,33,18.80
2014,06,21,15,34,18.80
2014,06,21,15,35,18.80
2014,06,21,15,36,18.80
2014,06,21,15,37,18.80
2014,06,21,15,38,18.80
2014,06,21,15,39,18.80
2014,06,21,15,40,18.90
2014,06,21,15,41,18.90
2014,06,21,15,42,19.00
2014,06,21,15,43,19.10
2014,06,21,15,44,19.10
2014,06,21,15,45,19.10
2014,06,21,15,46,19.20
2014,06,21,15,47,19.20
2014,06,21,15,48,19.20
2014,06,21,15,49,19.20
2014,06,21,15,50,19.30
2014,06,21,15,51,19.30
2014,06,21,15,52,19.40
2014,06,21,15,53,19.50
2014,06,21,15,54,19.60
2014,06,21,15,55,19.60
2014,06,21,15,56,19.60
2014,06,21,15,57,19.60
2014,06,21,15,58,19.60
2014,06,21,15,59,19.60
2014,06,21,16,00,19.60
2014,06,21,16,01,19.60
2014,06,21,16,02,19.70
2014,06,21,16,03,19.70
2014,06,21,16,04,19.60
2014,06,21,16,05,19.50
2014,06,21,16,06,19.50
2014,06,21,16,07,19.50
2014,06,21,16,08,19.50
2014,06,21,16,09,19.60
2014,06,21,16,10,19.70
2014,06,21,16,11,19.80
2014,06,21,16,12,20.00
2014,06,21,16,13,20.10
2014,06,21,16,14,20.30
2014,06,21,16,15,20.30
2014,06,21,16,16,20.40
2014,06,21,16,17,20.50
2014,06,21,16,18,20.60
2014,06,21,16,19,20.60
2014,06,21,16,20,20.60
2014,06,21,16,21,20.50
2014,06,21,16,22,20.30
2014,06,21,16,23,20.10
2014,06,21,16,24,20.00
2014,06,21,16,25,19.90
2014,06,21,16,26,19.80
2014,06,21,16,27,19.70
2014,06,21,16,28,19.60
2014,06,21,16,29,19.50
2014,06,21,16,30,19.40
2014,06,21,16,31,19.30
2014,06,21,16,32,19.30
2014,06,21,16,33,19.40
2014,06,21,16,34,19.40
2014,06,21,16,35,19.40
2014,06,21,16,36,19.40
2014,06,21,16,37,19.40
2014,06,21,16,38,19.30
2014,06,21,16,39,19.30
2014,06,21,16,40,19.30
2014,06,21,16,41,19.30
2014,06,21,16,42,19.40
2014,06,21,16,43,19.50
2014,06,21,16,44,19.50
2014,06,21,16,45,19.50
2014,06,21,16,46,19.50
2014,06,21,16,47,19.40
2014,06,21,16,48,19.40
2014,06,21,16,49,19.40
2014,06,21,16,50,19.50
2014,06,21,16,51,19.60
2014,06,21,16,52,19.70
2014,06,21,16,53,19.70
2014,06,21,16,54,19.70
2014,06,21,16,55,19.80
2014,06,21,16,56,19.90
2014,06,21,16,57,19.90
2014,06,21,16,58,19.90
2014,06,21,16,59,19.80
2014,06,21,17,00,19.80
2014,06,21,17,01,19.90
2014,06,21,17,02,20.00
2014,06,21,17,03,20.20
2014,06,21,17,04,20.20
2014,06,21,17,05,20.30
2014,06,21,17,06,20.30
2014,06,21,17,07,20.30
2014,06,21,17,08,20.30
2014,06,21,17,09,20.20
2014,06,21,17,10,20.20
2014,06,21,17,11,20.20
2014,06,21,17,12,20.20
2014,06,21,17,13,20.20
2014,06,21,17,14,20.30
2014,06,21,17,15,20.40
2014,06,21,17,16,20.50
2014,06,21,17,17,20.60
2014,06,21,17,18,20.60
2014,06,21,17,19,20.70
2014,06,21,17,20,20.80
2014,06,21,17,21,20.80
2014,06,21,17,22,20.90
2014,06,21,17,23,20.90
2014,06,21,17,24,20.80
2014,06,21,17,25,20.70
2014,06,21,17,26,20.60
2014,06,21,17,27,20.60
2014,06,21,17,28,20.70
2014,06,21,17,29,20.80
2014,06,21,17,30,20.80
2014,06,21,17,31,20.80
2014,06,21,17,32,20.70
2014,06,21,17,33,20.70
2014,06,21,17,34,20.70
2014,06,21,17,35,20.70